Regional Weather Roundup
Issued by NWS

Home | Current Version | Previous Version | Text Only | Print | Product List | Glossary Off
Versions: 1 2 3 4 5 6 7 8 9 10 11 12 13 14 15 16 17 18 19 20 21 22 23 24 25 26 27 28 29 30 31 32 33 34 35 36 37 38 39 40 41 42 43 44 45 46 47 48 49 50

000
ASUS44 KMEG 201500
RWRTN
TENNESSEE HOURLY STATE WEATHER ROUNDUP
NATIONAL WEATHER SERVICE MEMPHIS TN
1000 AM CDT SAT SEP 20 2014

TNZ002-004-019-021-049-052-054-088>092-201600-
WEST TENNESSEE

CITY           SKY/WX    TMP DP  RH WIND       PRES   REMARKS
MEMPHIS INTL   SUNNY     79  67  66 S8        30.09R
NWS MEMPHIS      N/A     79 N/A N/A MISG        N/A
JACKSON        SUNNY     77  67  71 S8        30.11S
DYERSBURG      SUNNY     75  63  64 S6        30.11R
UNION CITY     SUNNY     75  68  78 S8        30.10R
PARIS          SUNNY     75  64  69 S10       30.12R
LEXINGTON      SUNNY     75  66  73 S9        30.12S
SAVANNAH       SUNNY     75  68  78 S8        30.13R
$$

TNZ008-025-027-028-033-062-065-066-201600-
NORTH MIDDLE TENNESSEE

CITY           SKY/WX    TMP DP  RH WIND       PRES   REMARKS
NASHVILLE      SUNNY     78  63  59 S15       30.15R
CLARKSVILLE    SUNNY     76  66  71 S9        30.12S
COOKEVILLE     SUNNY     75  64  69 S9        30.17S
CROSSVILLE     MOSUNNY   73  59  61 S9G16     30.22R
$$

TNZ061-075-076-078-094-096-097-201600-
SOUTH MIDDLE TENNESSEE

CITY           SKY/WX    TMP DP  RH WIND       PRES   REMARKS
FAYETTEVILLE   SUNNY     73  61  64 S13       30.17R
TULLAHOMA      SUNNY     73  61  64 SE12      30.18S
WINCHESTER     SUNNY     75  61  60 SE15      30.17S
COLUMBIA       SUNNY     79  68  69 SE10      30.14R
SHELBYVILLE    SUNNY     77  64  65 S13       30.17S
$$

TNZ017-018-042-046-047-201600-
NORTHEAST TENNESSEE

CITY           SKY/WX    TMP DP  RH WIND       PRES   REMARKS
TRI CITIES     SUNNY     72  54  53 CALM      30.22F
ELIZABETHTON   SUNNY     72  52  49 VRB3      30.23S
$$

TNZ012-013-036-069-073-074-201600-
CENTRAL EAST TENNESSEE

CITY           SKY/WX    TMP DP  RH WIND       PRES   REMARKS
KNOXVILLE      MOSUNNY   73  60  63 CALM      30.18S
OAK RIDGE      SUNNY     74  61  63 VRB3      30.20S
GATLINBURG     SUNNY     72  61  68 CALM      30.19S
$$

TNZ083-085-099-201600-
SOUTHEAST TENNESSEE

CITY           SKY/WX    TMP DP  RH WIND       PRES   REMARKS
CHATTANOOGA    MOSUNNY   75  62  64 SE3       30.18S
$$

SKY/WX REPORTED AS FAIR MEANS FEW OR NO CLOUDS BELOW
12 THOUSAND FEET.



USA.gov is the U.S. government's official web portal to all federal, state and local government web resources and services.